Location: Luxembourg
(49.6000°N, 6.1500°W)
Time: 03:27:40
(UTC+01:00)

Amateur Radio Satellites - All Passes

Search period start: 21 January 2018 02:57
Search period end: 22 January 2018 02:57
Location: Luxembourg, 49.6000°N, 6.1500°W

Satellite Date Start Highest point End Downlink Frequencies (MHz)
Time Altitude Azimuth
YUBILEINY 21 Jan 02:59:51 03:06:23 22° 306° (NW) 03:12:58 435.215
MOZHAYETS 4 21 Jan 02:59:57 03:04:19 42° 68° (ENE) 03:08:41
DX 1 21 Jan 03:02:54 03:06:55 37° 262° (W) 03:10:59 434.975-435.025
CUBESAT XI-V 21 Jan 03:04:21 03:07:07 16° 57° (ENE) 03:09:52 437.345
nSIGHT-1 21 Jan 03:05:39 03:08:49 66° 202° (SSW) 03:11:58 .
BEESAT 21 Jan 03:06:42 03:10:55 32° 64° (ENE) 03:15:10 436.000
O/OREOS (USA 219) 21 Jan 03:08:56 03:13:04 35° 306° (NW) 03:17:13 437.305
Gurwin Techsat 1B 21 Jan 03:14:22 03:19:40 63° 102° (ESE) 03:24:56 435.225
ISS 21 Jan 03:17:49 03:21:05 72° 203° (SSW) 03:24:21 437.550
DUCHIFAT 1 21 Jan 03:25:36 03:27:54 14° 302° (WNW) 03:30:14 145.980
EO-79 21 Jan 03:27:15 03:28:44 12° 305° (NW) 03:30:13 145.935-145.965
Oscar 19 21 Jan 03:30:27 03:35:39 77° 288° (WNW) 03:40:48 437.125/150
50 SAT 21 Jan 03:30:34 03:32:14 14° 268° (W) 03:33:53 437.505
AO-7 21 Jan 03:38:05 03:44:20 22° 89° (E) 03:50:30 .
AO-91 21 Jan 03:49:49 03:53:50 39° 291° (WNW) 03:58:14 145.960
ITUPSAT 1 21 Jan 04:03:49 04:08:37 84° 254° (WSW) 04:13:27 437.325
BUGSAT 1 21 Jan 04:27:53 04:29:57 13° 303° (WNW) 04:32:01 437.445
KKS-1 21 Jan 04:31:50 04:34:48 18° 59° (ENE) 04:37:47 437.445
ITAMSAT 1 21 Jan 04:36:28 04:40:57 29° 94° (E) 04:45:25 435.822/435.867
MOZHAYETS 4 21 Jan 04:37:41 04:41:36 27° 266° (W) 04:45:33
CUBESAT XI-V 21 Jan 04:39:09 04:43:51 85° 254° (WSW) 04:48:34 437.345
nSIGHT-1 21 Jan 04:42:38 04:44:31 15° 221° (SW) 04:46:24 .
BEESAT 21 Jan 04:44:14 04:48:38 37° 263° (W) 04:53:05 436.000
STARS 21 Jan 04:49:46 04:51:23 12° 54° (NE) 04:53:02 437.465
ISS 21 Jan 04:54:56 04:57:08 17° 220° (SW) 04:59:21 437.550
Gurwin Techsat 1B 21 Jan 04:55:01 04:59:13 24° 301° (WNW) 05:03:23 435.225
Oscar 19 21 Jan 05:11:22 05:14:08 15° 307° (NW) 05:16:54 437.125/150
AO-7 21 Jan 05:29:48 05:38:15 87° 108° (ESE) 05:46:38 .
ITUPSAT 1 21 Jan 05:45:23 05:47:12 12° 274° (W) 05:49:01 437.325
SO-50 21 Jan 05:54:21 05:56:54 15° 111° (ESE) 05:59:27 436.795
STRAND 1 21 Jan 05:59:42 06:01:38 12° 51° (NE) 06:03:35 437.568
KKS-1 21 Jan 06:06:31 06:10:54 66° 257° (WSW) 06:15:20 437.445
ITAMSAT 1 21 Jan 06:15:38 06:20:36 47° 293° (WNW) 06:25:34 435.822/435.867
CUBESAT XI-V 21 Jan 06:20:20 06:21:57 12° 275° (W) 06:23:34 437.345
DOVE 4 21 Jan 06:21:15 06:25:34 75° 103° (ESE) 06:30:05 437.250
STARS 21 Jan 06:22:38 06:26:58 78° 75° (ENE) 06:31:22 437.465
XW-2D 21 Jan 06:25:27 06:27:14 13° 89° (E) 06:29:01 145.860 - 145.880
M-CUBED/EXP-1 PRIME 21 Jan 06:29:22 06:32:43 50° 106° (ESE) 06:35:54 437.505
FO-29 21 Jan 06:42:03 06:45:56 17° 54° (NE) 06:49:34 435.910
XW-2B 21 Jan 06:42:19 06:45:01 19° 92° (E) 06:47:43 145.730 - 145.750
LilacSat-2 21 Jan 07:09:45 07:13:21 40° 98° (E) 07:16:55 437.200
XW-2C 21 Jan 07:12:03 07:15:37 39° 98° (E) 07:19:08 145.795 - 145.815
AO-7 21 Jan 07:23:17 07:30:10 30° 312° (NW) 07:37:02 .
HO-68 21 Jan 07:29:25 07:35:28 29° 92° (E) 07:41:29 435.675
RS-15 21 Jan 07:29:54 07:36:55 18° 94° (E) 07:43:51 29.354- 29.394
SO-50 21 Jan 07:32:12 07:36:41 86° 308° (NW) 07:41:17 436.795
SEEDS 21 Jan 07:32:47 07:34:54 14° 88° (E) 07:36:59 437.485
STRAND 1 21 Jan 07:34:50 07:39:51 63° 70° (ENE) 07:44:55 437.568
CUTE 1.7 + AOD 2 21 Jan 07:44:10 07:47:48 28° 94° (E) 07:51:25 437.475
KAITUO 1B 21 Jan 07:46:38 07:50:21 69° 102° (ESE) 07:54:01 145.475/437.950
CUTE-I 21 Jan 07:48:07 07:53:25 66° 102° (ESE) 07:58:43 437.470
XW-2F 21 Jan 07:48:20 07:52:06 87° 284° (WNW) 07:55:49 145.980 - 146.000
CUBEBUG 2 21 Jan 07:55:51 07:59:55 28° 93° (E) 08:03:59 437.445
NUDT-PHONESAT 21 Jan 07:57:39 08:01:22 88° 105° (ESE) 08:05:01 437.300
XW-2D 21 Jan 07:58:04 08:01:48 60° 287° (WNW) 08:05:29 145.860 - 145.880
DOVE 4 21 Jan 08:00:19 08:02:47 15° 301° (WNW) 08:05:20 437.250
UWE-3 21 Jan 08:01:44 08:05:03 19° 89° (E) 08:08:20 435.000/436.395/437.385
STARS 21 Jan 08:01:47 08:03:53 13° 272° (W) 08:05:58 437.465
M-CUBED/EXP-1 PRIME 21 Jan 08:04:45 08:06:45 15° 306° (NW) 08:08:42 437.505
XW-2B 21 Jan 08:15:49 08:19:23 40° 290° (WNW) 08:22:54 145.730 - 145.750
XW-2A 21 Jan 08:19:37 08:20:57 12° 89° (E) 08:22:17 145.665 - 145.685
FO-29 21 Jan 08:23:35 08:30:18 76° 72° (ENE) 08:36:12 435.910
ZACube-1 21 Jan 08:25:36 08:28:38 17° 89° (E) 08:31:37 437.345
AO-73 21 Jan 08:32:20 08:35:24 18° 89° (E) 08:38:26 145.935
LilacSat-2 21 Jan 08:44:33 08:47:23 20° 296° (WNW) 08:50:11 437.200
XW-2C 21 Jan 08:46:44 08:49:33 20° 296° (WNW) 08:52:21 145.795 - 145.815
AAUSAT CUBESAT 2 21 Jan 08:48:33 08:52:19 34° 96° (E) 08:56:04 437.432
Oscar 11 21 Jan 09:05:16 09:08:40 22° 92° (E) 09:12:03 .
SEEDS 21 Jan 09:06:54 09:11:04 69° 285° (WNW) 09:15:11 437.485
YUBILEINY 21 Jan 09:08:10 09:13:52 18° 50° (NE) 09:19:32 435.215
SO-50 21 Jan 09:14:15 09:17:48 22° 332° (NNW) 09:21:26 436.795
STRAND 1 21 Jan 09:15:43 09:19:29 21° 270° (W) 09:23:16 437.568
HO-68 21 Jan 09:16:39 09:23:46 69° 292° (WNW) 09:30:51 435.675
AO-7 21 Jan 09:18:07 09:20:14 11° 338° (NNW) 09:22:21 .
CUTE 1.7 + AOD 2 21 Jan 09:19:52 09:23:41 34° 293° (WNW) 09:27:28 437.475
KAITUO 1B 21 Jan 09:22:09 09:23:48 13° 300° (WNW) 09:25:27 145.475/437.950
XW-2F 21 Jan 09:25:17 09:25:32 10° 303° (WNW) 09:25:47 145.980 - 146.000
CUTE-I 21 Jan 09:28:55 09:33:02 23° 302° (WNW) 09:37:09 437.470
CUBEBUG 2 21 Jan 09:32:10 09:36:40 43° 291° (WNW) 09:41:08 437.445
TIGRISAT 21 Jan 09:33:25 09:37:31 37° 67° (ENE) 09:41:44 435.000
NUDT-PHONESAT 21 Jan 09:33:54 09:34:34 10° 302° (WNW) 09:35:14 437.300
RS-15 21 Jan 09:34:48 09:46:50 63° 118° (ESE) 09:58:40 29.354- 29.394
UWE-3 21 Jan 09:37:15 09:41:54 61° 288° (WNW) 09:46:28 435.000/436.395/437.385
UNISAT 6 21 Jan 09:48:26 09:52:46 55° 71° (ENE) 09:57:16 437.425
XW-2A 21 Jan 09:50:39 09:53:58 52° 287° (WNW) 09:57:13 145.665 - 145.685
O/OREOS (USA 219) 21 Jan 09:56:01 09:59:32 22° 47° (NE) 10:03:01 437.305
PRISM 21 Jan 10:00:01 10:02:54 19° 61° (ENE) 10:05:47 437.425
ZACube-1 21 Jan 10:00:48 10:05:21 64° 287° (WNW) 10:09:49 437.345
Max Valier Satellite 21 Jan 10:04:44 10:05:46 11° 87° (E) 10:06:49 145.860
AO-73 21 Jan 10:07:32 10:12:03 62° 288° (WNW) 10:16:29 145.935
FO-29 21 Jan 10:10:54 10:15:51 22° 269° (W) 10:20:28 435.910
BEESAT 3 21 Jan 10:16:13 10:18:49 17° 113° (ESE) 10:21:24 437.485
EO-88 21 Jan 10:23:02 10:24:18 11° 88° (E) 10:25:32 145.990 - 145.960
AAUSAT CUBESAT 2 21 Jan 10:24:13 10:27:39 26° 295° (WNW) 10:31:05 437.432
AIST 2D 21 Jan 10:30:24 10:32:25 15° 62° (ENE) 10:34:25 435.315
PCSat 21 Jan 10:31:43 10:36:10 26° 110° (ESE) 10:40:38 145.827
Oscar 11 21 Jan 10:40:53 10:45:01 44° 291° (WNW) 10:49:07 .
QB50P2 21 Jan 10:42:46 10:43:50 11° 54° (NE) 10:44:53 145.880/145.840
SO-50 21 Jan 10:57:52 10:59:56 13° 357° (N) 11:02:00 436.795
DELFI C3 21 Jan 10:58:59 11:02:54 64° 101° (E) 11:06:48 145.870
YUBILEINY 21 Jan 11:03:59 11:12:43 67° 76° (ENE) 11:21:22 435.215
BEESAT 2 21 Jan 11:04:50 11:07:09 15° 112° (ESE) 11:09:28 435.950
HO-68 21 Jan 11:05:39 11:10:19 19° 314° (NW) 11:14:59 435.675
TIGRISAT 21 Jan 11:10:24 11:14:16 29° 266° (W) 11:18:14 435.000
DUCHIFAT 1 21 Jan 11:10:53 11:13:04 14° 57° (ENE) 11:15:16 145.980
EO-79 21 Jan 11:11:33 11:14:23 18° 60° (ENE) 11:17:14 145.935-145.965
UWE-3 21 Jan 11:16:35 11:17:24 10° 307° (NW) 11:18:13 435.000/436.395/437.385
UNISAT 6 21 Jan 11:26:36 11:29:50 19° 270° (W) 11:33:09 437.425
PRISM 21 Jan 11:33:53 11:37:50 51° 260° (W) 11:41:49 437.425
O/OREOS (USA 219) 21 Jan 11:34:55 11:39:20 60° 247° (WSW) 11:43:44 437.305
Max Valier Satellite 21 Jan 11:36:21 11:40:03 70° 286° (WNW) 11:43:43 145.860
ZACube-1 21 Jan 11:39:48 11:40:42 11° 307° (NW) 11:41:37 437.345
LO-87 21 Jan 11:41:22 11:43:04 13° 89° (E) 11:44:45 145.935 - 145.965
POLYITAN 1 21 Jan 11:45:19 11:49:10 34° 67° (ENE) 11:53:04 437.675
AO-73 21 Jan 11:46:50 11:47:21 10° 307° (NW) 11:47:50 145.935
RS-15 21 Jan 11:47:36 11:59:44 58° 325° (NW) 12:11:33 29.354- 29.394
BEESAT 3 21 Jan 11:51:55 11:55:53 67° 312° (NW) 11:59:53 437.485
EO-88 21 Jan 11:54:44 11:58:20 64° 286° (WNW) 12:01:55 145.990 - 145.960
NANOSAT C BR1 21 Jan 12:00:35 12:04:34 42° 69° (ENE) 12:08:36 145.865
AIST 2D 21 Jan 12:01:45 12:05:12 51° 260° (W) 12:08:39 435.315
BUGSAT 1 21 Jan 12:11:27 12:13:38 14° 58° (ENE) 12:15:50 437.445
PCSat 21 Jan 12:13:50 12:19:12 62° 311° (NW) 12:24:36 145.827
QB50P2 21 Jan 12:14:36 12:18:49 73° 73° (ENE) 12:23:06 145.880/145.840
DELFI C3 21 Jan 12:34:56 12:37:11 15° 300° (WNW) 12:39:25 145.870
SO-50 21 Jan 12:39:03 12:42:13 18° 21° (NNE) 12:45:23 436.795
AO-85 21 Jan 12:39:23 12:42:15 19° 113° (ESE) 12:45:15 145.980
BEESAT 2 21 Jan 12:40:17 12:44:19 76° 309° (NW) 12:48:24 435.950
DUCHIFAT 1 21 Jan 12:43:55 12:48:08 82° 256° (WSW) 12:52:24 145.980
EO-79 21 Jan 12:45:31 12:49:43 61° 259° (W) 12:53:57 145.935-145.965
SPROUT 21 Jan 12:51:03 12:53:42 16° 89° (E) 12:56:20 437.525
AO-7 21 Jan 12:53:41 12:58:23 17° 33° (NNE) 13:03:04 .
ESTCUBE 1 21 Jan 12:56:18 13:00:47 63° 101° (ESE) 13:05:13 437.505/2401.250
Gurwin Techsat 1B 21 Jan 13:01:17 13:05:39 26° 60° (ENE) 13:10:01 435.225
YUBILEINY 21 Jan 13:01:29 13:08:56 33° 278° (W) 13:16:21 435.215
Oscar 19 21 Jan 13:12:49 13:17:37 39° 65° (ENE) 13:22:27 437.125/150
LO-87 21 Jan 13:13:14 13:16:49 57° 287° (WNW) 13:20:22 145.935 - 145.965
AO-91 21 Jan 13:15:50 13:18:49 29° 67° (ENE) 13:21:57 145.960
POLYITAN 1 21 Jan 13:21:19 13:24:59 28° 265° (W) 13:28:41 437.675
BEESAT 3 21 Jan 13:31:31 13:34:07 16° 333° (NNW) 13:36:44 437.485
NANOSAT C BR1 21 Jan 13:37:08 13:40:28 22° 267° (W) 13:43:49 145.865
BUGSAT 1 21 Jan 13:44:19 13:48:24 77° 257° (WSW) 13:52:35 437.445
QB50P2 21 Jan 13:53:01 13:55:08 13° 272° (W) 13:57:15 145.880/145.840
PCSat 21 Jan 13:59:48 14:03:42 20° 333° (NNW) 14:07:35 145.827
RS-15 21 Jan 14:04:03 14:15:14 39° 357° (N) 14:26:00 29.354- 29.394
AO-85 21 Jan 14:18:09 14:22:10 61° 314° (NW) 14:26:33 145.980
SO-50 21 Jan 14:19:05 14:23:40 52° 44° (NE) 14:28:19 436.795
BEESAT 2 21 Jan 14:19:52 14:22:42 18° 332° (NNW) 14:25:32 435.950
ITAMSAT 1 21 Jan 14:22:43 14:25:04 13° 51° (NE) 14:27:25 435.822/435.867
SPROUT 21 Jan 14:25:44 14:30:00 63° 288° (WNW) 14:34:15 437.525
VELOX 1 21 Jan 14:30:57 14:35:23 81° 106° (ESE) 14:39:47 145.980
ESTCUBE 1 21 Jan 14:34:02 14:37:09 19° 301° (WNW) 14:40:15 437.505/2401.250
UKube-1 21 Jan 14:35:13 14:37:12 13° 88° (E) 14:39:10 .
50 SAT 21 Jan 14:39:43 14:41:42 16° 93° (E) 14:43:40 437.505
Gurwin Techsat 1B 21 Jan 14:40:04 14:45:17 56° 259° (W) 14:50:32 435.225
AO-7 21 Jan 14:41:20 14:49:12 48° 57° (ENE) 14:57:07 .
DX 1 21 Jan 14:46:29 14:50:08 26° 95° (E) 14:53:47 434.975-435.025
Oscar 19 21 Jan 14:52:16 14:56:59 35° 264° (W) 15:01:45 437.125/150
AO-91 21 Jan 14:52:50 14:55:25 20° 267° (W) 14:58:07 145.960
M-CUBED/EXP-1 PRIME 21 Jan 15:45:06 15:48:08 20° 57° (ENE) 15:51:00 437.505
PCSat 21 Jan 15:47:09 15:49:19 12° 359° (N) 15:51:30 145.827
DOVE 4 21 Jan 15:55:32 15:58:04 16° 60° (ENE) 16:00:34 437.250
ITAMSAT 1 21 Jan 15:58:29 16:03:36 68° 71° (ENE) 16:08:46 435.822/435.867
SO-50 21 Jan 15:59:54 16:03:56 29° 243° (WSW) 16:08:00 436.795
AO-85 21 Jan 16:00:34 16:03:30 18° 337° (NNW) 16:06:36 145.980
ITUPSAT 1 21 Jan 16:00:43 16:04:02 18° 90° (E) 16:07:20 437.325
VELOX 1 21 Jan 16:08:45 16:11:14 15° 303° (WNW) 16:13:43 145.980
UKube-1 21 Jan 16:09:26 16:13:46 79° 286° (WNW) 16:18:03 .
50 SAT 21 Jan 16:10:41 16:13:32 33° 290° (WNW) 16:16:21 437.505
RS-15 21 Jan 16:19:17 16:30:58 52° 30° (NNE) 16:42:01 29.354- 29.394
DX 1 21 Jan 16:22:23 16:26:26 38° 293° (WNW) 16:30:27 434.975-435.025
HO-68 21 Jan 16:22:38 16:23:22 10° 34° (NNE) 16:24:07 435.675
MOZHAYETS 4 21 Jan 16:27:10 16:31:44 53° 100° (E) 16:36:15
CUBESAT XI-V 21 Jan 16:32:09 16:35:17 18° 89° (E) 16:38:23 437.345
AO-7 21 Jan 16:33:53 16:41:57 51° 259° (WSW) 16:50:06 .
BEESAT 21 Jan 16:39:20 16:43:52 40° 98° (E) 16:48:21 436.000
BEESAT 3 21 Jan 16:50:34 16:52:30 13° 21° (NNE) 16:54:27 437.485
XW-2D 21 Jan 17:10:55 17:12:51 14° 60° (ENE) 17:14:47 145.860 - 145.880
M-CUBED/EXP-1 PRIME 21 Jan 17:18:01 17:22:14 56° 253° (WSW) 17:26:11 437.505
XW-2B 21 Jan 17:27:37 17:30:19 19° 63° (ENE) 17:33:02 145.730 - 145.750
DOVE 4 21 Jan 17:31:06 17:35:20 66° 258° (WSW) 17:39:29 437.250
PCSat 21 Jan 17:31:09 17:34:59 19° 26° (NNE) 17:38:48 145.827
CUTE-I 21 Jan 17:35:35 17:40:02 28° 61° (ENE) 17:44:29 437.470
ITUPSAT 1 21 Jan 17:37:31 17:42:19 66° 288° (WNW) 17:47:05 437.325
NO-84 21 Jan 17:37:37 17:38:36 11° 132° (SE) 17:39:34 435.350 FM
BEESAT 2 21 Jan 17:39:32 17:41:28 13° 20° (NNE) 17:43:25 435.950
ITAMSAT 1 21 Jan 17:39:52 17:43:34 20° 270° (W) 17:47:18 435.822/435.867
AO-85 21 Jan 17:43:52 17:45:45 12° 3° (N) 17:47:41 145.980
UKube-1 21 Jan 17:47:29 17:49:03 12° 306° (NW) 17:50:36 .
KKS-1 21 Jan 17:53:47 17:56:46 17° 91° (E) 17:59:44 437.445
LilacSat-2 21 Jan 17:55:20 17:58:55 37° 69° (ENE) 18:02:30 437.200
XW-2C 21 Jan 17:56:59 18:00:30 36° 69° (ENE) 18:04:03 145.795 - 145.815
HO-68 21 Jan 18:02:46 18:09:04 35° 57° (ENE) 18:15:24 435.675
MOZHAYETS 4 21 Jan 18:04:57 18:08:34 23° 299° (WNW) 18:12:09
CUBESAT XI-V 21 Jan 18:08:30 18:13:05 62° 288° (WNW) 18:17:37 437.345
STARS 21 Jan 18:10:24 18:10:56 10° 86° (E) 18:11:27 437.465
BEESAT 21 Jan 18:17:20 18:21:31 31° 297° (WNW) 18:25:41 436.000
BEESAT 3 21 Jan 18:27:12 18:31:00 43° 43° (NE) 18:34:44 437.485
SEEDS 21 Jan 18:28:15 18:31:04 18° 61° (ENE) 18:33:54 437.485
KAITUO 1B 21 Jan 18:29:59 18:33:42 59° 73° (ENE) 18:37:24 145.475/437.950
RS-15 21 Jan 18:32:28 18:44:11 72° 239° (WSW) 18:55:15 29.354- 29.394
XW-2F 21 Jan 18:32:31 18:36:20 82° 75° (ENE) 18:40:09 145.980 - 146.000
AO-7 21 Jan 18:36:14 18:36:51 10° 281° (W) 18:37:29 .
NUDT-PHONESAT 21 Jan 18:40:00 18:43:43 72° 75° (ENE) 18:47:27 437.300
CUTE 1.7 + AOD 2 21 Jan 18:40:33 18:44:25 34° 68° (ENE) 18:48:17 437.475
XW-2D 21 Jan 18:42:41 18:46:30 69° 257° (WSW) 18:50:20 145.860 - 145.880
CUBEBUG 2 21 Jan 18:57:48 19:01:50 35° 67° (ENE) 19:06:01 437.445
XW-2B 21 Jan 19:00:30 19:04:12 45° 261° (W) 19:07:54 145.730 - 145.750
UWE-3 21 Jan 19:02:32 19:06:11 25° 63° (ENE) 19:09:55 435.000/436.395/437.385
NO-84 21 Jan 19:12:19 19:15:19 74° 149° (SSE) 19:18:11 435.350 FM
PCSat 21 Jan 19:14:08 19:19:32 58° 49° (NE) 19:24:52 145.827
CUTE-I 21 Jan 19:14:38 19:19:49 53° 260° (W) 19:25:01 437.470
BEESAT 2 21 Jan 19:16:24 19:20:14 40° 42° (NE) 19:24:01 435.950
ITUPSAT 1 21 Jan 19:17:32 19:19:14 12° 308° (NW) 19:20:57 437.325
AO-85 21 Jan 19:24:21 19:27:54 21° 27° (NNE) 19:31:38 145.980
ZACube-1 21 Jan 19:25:06 19:28:39 23° 62° (ENE) 19:32:15 437.345
KKS-1 21 Jan 19:29:18 19:33:43 61° 289° (WNW) 19:38:06 437.445
LilacSat-2 21 Jan 19:30:20 19:33:18 21° 267° (W) 19:36:18 437.200
AO-73 21 Jan 19:31:29 19:35:03 24° 62° (ENE) 19:38:40 145.935
XW-2C 21 Jan 19:31:47 19:34:47 22° 267° (W) 19:37:48 145.795 - 145.815
STRAND 1 21 Jan 19:42:03 19:45:05 16° 88° (E) 19:48:06 437.568
AAUSAT CUBESAT 2 21 Jan 19:42:18 19:46:10 39° 69° (ENE) 19:50:01 437.432
STARS 21 Jan 19:43:32 19:47:59 82° 105° (ESE) 19:52:25 437.465
CUBESAT XI-V 21 Jan 19:48:46 19:49:31 10° 308° (NW) 19:50:18 437.345
HO-68 21 Jan 19:49:26 19:56:29 61° 258° (WSW) 20:03:36 435.675
SEEDS 21 Jan 20:02:10 20:06:21 59° 259° (W) 20:10:31 437.485
Oscar 11 21 Jan 20:03:52 20:07:38 29° 66° (ENE) 20:11:26 .
BEESAT 3 21 Jan 20:05:04 20:08:21 25° 243° (WSW) 20:11:34 437.485
KAITUO 1B 21 Jan 20:06:09 20:08:02 13° 271° (W) 20:09:54 145.475/437.950
CUTE 1.7 + AOD 2 21 Jan 20:16:36 20:20:17 28° 266° (W) 20:23:59 437.475
NUDT-PHONESAT 21 Jan 20:17:00 20:18:01 11° 272° (W) 20:19:01 437.300
XW-2A 21 Jan 20:24:57 20:28:23 84° 256° (WSW) 20:31:49 145.665 - 145.685
CUBEBUG 2 21 Jan 20:34:36 20:38:29 30° 266° (W) 20:42:31 437.445
UWE-3 21 Jan 20:38:06 20:42:22 45° 262° (W) 20:46:48 435.000/436.395/437.385
RS-15 21 Jan 20:46:46 20:54:17 20° 263° (W) 21:01:37 29.354- 29.394
Max Valier Satellite 21 Jan 20:48:01 20:49:03 11° 58° (ENE) 20:50:05 145.860
NO-84 21 Jan 20:50:01 20:52:39 30° 348° (NNW) 20:55:14 435.350 FM
BEESAT 2 21 Jan 20:54:20 20:57:50 29° 242° (WSW) 21:01:18 435.950
PCSat 21 Jan 20:58:02 21:02:36 28° 249° (WSW) 21:07:10 145.827
ZACube-1 21 Jan 21:00:16 21:04:37 49° 261° (W) 21:09:05 437.345
AO-85 21 Jan 21:04:18 21:09:08 68° 48° (NE) 21:14:17 145.980
EO-88 21 Jan 21:05:13 21:06:17 11° 59° (ENE) 21:07:20 145.990 - 145.960
AO-73 21 Jan 21:06:40 21:11:00 48° 261° (W) 21:15:26 145.935
FO-29 21 Jan 21:13:19 21:18:14 40° 97° (E) 21:23:08 435.910
AAUSAT CUBESAT 2 21 Jan 21:18:28 21:21:44 23° 267° (W) 21:25:03 437.432
STRAND 1 21 Jan 21:19:45 21:24:56 84° 287° (WNW) 21:30:05 437.568
STARS 21 Jan 21:21:13 21:23:44 15° 303° (WNW) 21:26:15 437.465
nSIGHT-1 21 Jan 21:21:46 21:23:42 15° 139° (SE) 21:25:39 .
ISS 21 Jan 21:37:34 21:39:35 15° 139° (SE) 21:41:36 437.550
Oscar 11 21 Jan 21:39:43 21:43:41 34° 264° (W) 21:47:42 .
HO-68 21 Jan 21:43:11 21:45:45 12° 278° (W) 21:48:19 435.675
DELFI C3 21 Jan 21:47:47 21:51:39 64° 73° (ENE) 21:55:32 145.870
Max Valier Satellite 21 Jan 22:18:31 22:22:15 86° 251° (WSW) 22:26:01 145.860
YUBILEINY 21 Jan 22:19:02 22:23:30 15° 70° (ENE) 22:27:57 435.215
LO-87 21 Jan 22:22:11 22:23:18 11° 59° (ENE) 22:24:26 145.935 - 145.965
ESTCUBE 1 21 Jan 22:25:27 22:27:58 15° 57° (ENE) 22:30:27 437.505/2401.250
NO-84 21 Jan 22:27:45 22:30:18 29° 10° (N) 22:32:51 435.350 FM
EO-88 21 Jan 22:35:40 22:39:19 82° 255° (WSW) 22:43:01 145.990 - 145.960
AO-85 21 Jan 22:45:19 22:49:15 24° 245° (WSW) 22:53:20 145.980
nSIGHT-1 21 Jan 22:56:16 22:59:25 68° 157° (SSE) 23:02:35 .
TIGRISAT 21 Jan 22:56:27 23:00:59 45° 98° (E) 23:05:30 435.000
FO-29 21 Jan 22:58:43 23:03:19 32° 298° (WNW) 23:07:52 435.910
STRAND 1 21 Jan 23:00:22 23:03:22 16° 306° (NW) 23:06:22 437.568
PRISM 21 Jan 23:11:29 23:13:57 15° 90° (E) 23:16:24 437.425
UNISAT 6 21 Jan 23:11:52 23:16:35 69° 102° (ESE) 23:21:16 437.425
ISS 21 Jan 23:12:21 23:15:35 67° 157° (SSE) 23:18:51 437.550
DELFI C3 21 Jan 23:24:54 23:26:48 13° 272° (W) 23:28:42 145.870
SPROUT 21 Jan 23:48:06 23:51:21 21° 62° (ENE) 23:54:36 437.525
LO-87 21 Jan 23:52:34 23:56:08 77° 257° (WSW) 23:59:45 145.935 - 145.965
VELOX 1 21 Jan 23:57:34 00:00:24 17° 59° (ENE) 00:03:16 145.980
ESTCUBE 1 21 Jan 23:59:36 00:04:08 86° 255° (WSW) 00:08:41 437.505/2401.250
NO-84 22 Jan 00:04:51 00:07:40 82° 211° (SSW) 00:10:33 435.350 FM
YUBILEINY 22 Jan 00:09:48 00:18:29 65° 93° (E) 00:27:09 435.215
DUCHIFAT 1 22 Jan 00:25:11 00:26:52 12° 87° (E) 00:28:33 145.980
EO-79 22 Jan 00:26:34 00:29:18 16° 90° (E) 00:32:02 145.935-145.965
nSIGHT-1 22 Jan 00:32:32 00:35:40 57° 357° (N) 00:38:48 .
TIGRISAT 22 Jan 00:33:32 00:37:27 26° 297° (WNW) 00:41:21 435.000
PRISM 22 Jan 00:45:34 00:49:35 59° 288° (WNW) 00:53:35 437.425
ISS 22 Jan 00:48:55 00:52:09 58° 356° (N) 00:55:24 437.550
UNISAT 6 22 Jan 00:49:31 00:52:48 19° 301° (WNW) 00:56:05 437.425
AIST 2D 22 Jan 00:55:01 00:58:30 79° 282° (WNW) 01:01:57 435.315
POLYITAN 1 22 Jan 01:00:56 01:04:54 34° 97° (E) 01:08:49 437.675
50 SAT 22 Jan 01:09:36 01:10:14 10° 60° (ENE) 01:10:52 437.505
NANOSAT C BR1 22 Jan 01:15:41 01:19:47 42° 98° (E) 01:23:50 145.865
SPROUT 22 Jan 01:22:49 01:26:56 48° 261° (W) 01:31:06 437.525
BUGSAT 1 22 Jan 01:23:21 01:24:59 12° 87° (E) 01:26:37 437.445
QB50P2 22 Jan 01:30:32 01:34:51 76° 103° (ESE) 01:39:08 145.880/145.840
VELOX 1 22 Jan 01:32:01 01:36:23 68° 257° (WSW) 01:40:46 145.980
UKube-1 22 Jan 01:33:06 01:36:17 20° 61° (ENE) 01:39:27 .
ESTCUBE 1 22 Jan 01:40:15 01:41:38 11° 274° (W) 01:43:01 437.505/2401.250
NO-84 22 Jan 01:43:17 01:44:23 12° 228° (SW) 01:45:30 435.350 FM
DX 1 22 Jan 01:45:45 01:49:46 39° 67° (ENE) 01:53:49 434.975-435.025
O/OREOS (USA 219) 22 Jan 01:51:08 01:55:36 67° 113° (ESE) 02:00:05 437.305
MOZHAYETS 4 22 Jan 01:58:47 02:01:02 14° 55° (NE) 02:03:18
DUCHIFAT 1 22 Jan 01:58:49 02:03:06 82° 286° (WNW) 02:07:22 145.980
EO-79 22 Jan 02:01:13 02:05:28 60° 288° (WNW) 02:09:40 145.935-145.965
YUBILEINY 22 Jan 02:07:59 02:15:54 36° 296° (WNW) 02:23:51 435.215
nSIGHT-1 22 Jan 02:08:49 02:12:00 84° 15° (NNE) 02:15:11 .
BEESAT 22 Jan 02:15:14 02:17:24 13° 53° (NE) 02:19:34 436.000
ISS 22 Jan 02:25:31 02:28:49 83° 16° (NNE) 02:32:06 437.550
AO-91 22 Jan 02:35:25 02:39:39 45° 99° (E) 02:44:19 145.960
POLYITAN 1 22 Jan 02:36:52 02:40:35 29° 295° (WNW) 02:44:17 437.675
50 SAT 22 Jan 02:38:27 02:41:29 59° 258° (WSW) 02:44:34 437.505
